• In Hungary
  • List of Countries
  • For 7 days
  • Water Temperature
  • Satellite Maps
  • Weather Map
  • News
  • Weather Widgets
  • user-avatar
    Login

    Hourly Weather Nsok

    Today, 11 December, Monday

    Time Temperature Precipitation Wind Pressure Humidity
    00:00 +20°C° 0 mm 0 mps 708 mmHg 97%
    01:00 +22°C° 0 mm 1 mps 708 mmHg 97%
    02:00 +20°C° 0 mm 0 mps 708 mmHg 97%
    03:00 +19°C° 0 mm 0 mps 708 mmHg 98%
    04:00 +19°C° 0 mm 0 mps 707 mmHg 98%
    05:00 +20°C° 0 mm 0 mps 708 mmHg 97%
    06:00 +20°C° 0 mm 0 mps 708 mmHg 96%
    07:00 +20°C° 0 mm 0 mps 708 mmHg 95%
    08:00 +23°C° 0 mm 0 mps 709 mmHg 84%
    09:00 +25°C° 0 mm 0 mps 709 mmHg 74%
    10:00 +28°C° 0 mm 0 mps 710 mmHg 63%
    11:00 +29°C° 0 mm 0 mps 709 mmHg 61%
    12:00 +29°C° 0 mm 0 mps 709 mmHg 58%
    13:00 +30°C° 0 mm 0 mps 708 mmHg 55%
    14:00 +30°C° 0.1 mm 0 mps 708 mmHg 57%
    15:00 +29°C° 0.1 mm 0 mps 707 mmHg 58%
    16:00 +29°C° 0.1 mm 0 mps 706 mmHg 59%
    17:00 +29°C° 0.2 mm 1 mps 706 mmHg 68%
    18:00 +27°C° 0.2 mm 1 mps 706 mmHg 78%
    19:00 +25°C° 0.2 mm 1 mps 706 mmHg 87%
    20:00 +25°C° 0.3 mm 1 mps 707 mmHg 90%
    21:00 +24°C° 0.3 mm 1 mps 707 mmHg 93%
    22:00 +24°C° 0.3 mm 1 mps 708 mmHg 95%
    23:00 +23°C° 0.1 mm 1 mps 708 mmHg 96%

    Tomorrow, 12 December, Tuesday

    Time Temperature Precipitation Wind Pressure Humidity
    00:00 +23°C° 0.1 mm 1 mps 708 mmHg 97%
    01:00 +23°C° 0.1 mm 1 mps 708 mmHg 97%
    02:00 +23°C° 0 mm 1 mps 707 mmHg 98%
    03:00 +22°C° 0 mm 1 mps 707 mmHg 98%
    04:00 +20°C° 0 mm 0 mps 707 mmHg 98%
    05:00 +20°C° 0.2 mm 0 mps 707 mmHg 98%
    06:00 +20°C° 0.2 mm 0 mps 707 mmHg 97%
    07:00 +21°C° 0.2 mm 0 mps 708 mmHg 96%
    08:00 +25°C° 0 mm 1 mps 708 mmHg 88%
    09:00 +26°C° 0 mm 1 mps 709 mmHg 79%
    10:00 +28°C° 0 mm 1 mps 709 mmHg 71%
    11:00 +30°C° 0.2 mm 1 mps 709 mmHg 67%
    12:00 +31°C° 0.2 mm 1 mps 708 mmHg 63%
    13:00 +32°C° 0.2 mm 1 mps 708 mmHg 58%
    14:00 +31°C° 0.3 mm 1 mps 707 mmHg 63%
    15:00 +30°C° 0.3 mm 1 mps 706 mmHg 67%
    16:00 +29°C° 0.3 mm 1 mps 706 mmHg 72%
    17:00 +28°C° 0.9 mm 1 mps 706 mmHg 79%
    18:00 +26°C° 0.9 mm 1 mps 707 mmHg 87%
    19:00 +24°C° 0.9 mm 1 mps 707 mmHg 94%
    20:00 +24°C° 0.8 mm 1 mps 708 mmHg 95%
    21:00 +24°C° 0.8 mm 1 mps 708 mmHg 95%
    22:00 +23°C° 0.8 mm 1 mps 709 mmHg 95%
    23:00 +23°C° 0 mm 1 mps 708 mmHg 96%

    Day after tomorrow, 13 December, Wednesday

    Time Temperature Precipitation Wind Pressure Humidity
    00:00 +23°C° 0 mm 1 mps 708 mmHg 96%
    01:00 +23°C° 0 mm 1 mps 708 mmHg 96%
    02:00 +22°C° 0 mm 1 mps 707 mmHg 97%
    03:00 +22°C° 0 mm 1 mps 707 mmHg 97%
    04:00 +22°C° 0 mm 1 mps 707 mmHg 98%
    05:00 +22°C° 0 mm 1 mps 707 mmHg 97%
    06:00 +22°C° 0 mm 1 mps 708 mmHg 96%
    07:00 +23°C° 0 mm 1 mps 708 mmHg 96%
    08:00 +24°C° 0 mm 1 mps 709 mmHg 87%
    09:00 +26°C° 0 mm 1 mps 709 mmHg 79%
    10:00 +28°C° 0 mm 1 mps 710 mmHg 70%
    11:00 +29°C° 0 mm 1 mps 709 mmHg 67%
    12:00 +30°C° 0 mm 1 mps 708 mmHg 63%
    13:00 +31°C° 0 mm 1 mps 707 mmHg 60%
    14:00 +31°C° 0.1 mm 1 mps 707 mmHg 60%
    15:00 +31°C° 0.1 mm 1 mps 706 mmHg 59%
    16:00 +31°C° 0.1 mm 1 mps 706 mmHg 59%
    17:00 +29°C° 0.5 mm 1 mps 706 mmHg 69%
    18:00 +27°C° 0.5 mm 1 mps 706 mmHg 79%
    19:00 +25°C° 0.5 mm 1 mps 707 mmHg 89%
    20:00 +24°C° 0.5 mm 1 mps 707 mmHg 91%
    21:00 +24°C° 0.5 mm 1 mps 708 mmHg 93%
    22:00 +23°C° 0.5 mm 1 mps 709 mmHg 95%
    23:00 +23°C° 0 mm 1 mps 709 mmHg 95%

    14 December, Thursday

    Time Temperature Precipitation Wind Pressure Humidity
    00:00 +22°C° 0 mm 1 mps 708 mmHg 95%
    01:00 +22°C° 0 mm 1 mps 708 mmHg 96%
    02:00 +22°C° 0 mm 1 mps 708 mmHg 96%
    03:00 +22°C° 0 mm 1 mps 708 mmHg 97%
    04:00 +21°C° 0 mm 1 mps 707 mmHg 97%
    05:00 +22°C° 0 mm 1 mps 708 mmHg 97%
    06:00 +20°C° 0 mm 0 mps 708 mmHg 96%
    07:00 +20°C° 0 mm 0 mps 709 mmHg 95%
    08:00 +24°C° 0 mm 1 mps 709 mmHg 85%
    09:00 +26°C° 0 mm 1 mps 710 mmHg 75%
    10:00 +28°C° 0 mm 1 mps 711 mmHg 65%
    11:00 +30°C° 0 mm 1 mps 710 mmHg 60%
    12:00 +31°C° 0 mm 1 mps 709 mmHg 55%
    13:00 +33°C° 0 mm 1 mps 708 mmHg 49%
    14:00 +32°C° 0.1 mm 1 mps 708 mmHg 53%
    15:00 +31°C° 0.1 mm 1 mps 707 mmHg 57%
    16:00 +30°C° 0.1 mm 1 mps 706 mmHg 61%
    17:00 +28°C° 0.5 mm 1 mps 706 mmHg 70%
    18:00 +26°C° 0.5 mm 1 mps 707 mmHg 79%
    19:00 +22°C° 0.5 mm 0 mps 707 mmHg 88%
    20:00 +22°C° 0 mm 0 mps 707 mmHg 89%
    21:00 +22°C° 0 mm 0 mps 708 mmHg 91%
    22:00 +21°C° 0 mm 0 mps 708 mmHg 92%
    23:00 +21°C° 0 mm 0 mps 708 mmHg 93%

    15 December, Friday

    Time Temperature Precipitation Wind Pressure Humidity
    00:00 +23°C° 0 mm 1 mps 708 mmHg 94%
    01:00 +23°C° 0 mm 1 mps 707 mmHg 95%
    02:00 +23°C° 0 mm 1 mps 707 mmHg 96%
    03:00 +23°C° 0 mm 1 mps 707 mmHg 96%
    04:00 +22°C° 0 mm 1 mps 707 mmHg 96%
    05:00 +23°C° 0 mm 1 mps 707 mmHg 96%
    06:00 +23°C° 0 mm 1 mps 708 mmHg 96%
    07:00 +23°C° 0 mm 1 mps 708 mmHg 95%
    08:00 +25°C° 0 mm 1 mps 709 mmHg 86%
    09:00 +27°C° 0 mm 1 mps 709 mmHg 77%
    10:00 +29°C° 0 mm 1 mps 710 mmHg 68%
    11:00 +30°C° 0 mm 1 mps 709 mmHg 64%
    12:00 +31°C° 0 mm 1 mps 708 mmHg 61%
    13:00 +31°C° 0 mm 1 mps 708 mmHg 58%
    14:00 +31°C° 0.1 mm 1 mps 707 mmHg 60%
    15:00 +30°C° 0.1 mm 1 mps 707 mmHg 61%
    16:00 +30°C° 0.1 mm 1 mps 706 mmHg 63%
    17:00 +28°C° 0.5 mm 1 mps 706 mmHg 72%
    18:00 +26°C° 0.5 mm 1 mps 707 mmHg 81%
    19:00 +25°C° 0.5 mm 1 mps 707 mmHg 91%
    20:00 +24°C° 0.2 mm 1 mps 707 mmHg 92%
    21:00 +24°C° 0.2 mm 1 mps 708 mmHg 94%
    22:00 +23°C° 0.2 mm 1 mps 708 mmHg 96%
    23:00 +23°C° 0.1 mm 1 mps 708 mmHg 96%

    16 December, Saturday

    Time Temperature Precipitation Wind Pressure Humidity
    00:00 +23°C° 0.1 mm 1 mps 708 mmHg 97%
    01:00 +23°C° 0.1 mm 1 mps 708 mmHg 97%
    02:00 +22°C° 0 mm 1 mps 707 mmHg 97%
    03:00 +22°C° 0 mm 1 mps 707 mmHg 97%
    04:00 +22°C° 0 mm 1 mps 707 mmHg 97%
    05:00 +22°C° 0 mm 1 mps 707 mmHg 97%
    06:00 +22°C° 0 mm 1 mps 708 mmHg 96%
    07:00 +22°C° 0 mm 1 mps 708 mmHg 96%
    08:00 +24°C° 0 mm 1 mps 709 mmHg 86%
    09:00 +26°C° 0 mm 1 mps 709 mmHg 77%
    10:00 +28°C° 0 mm 1 mps 710 mmHg 68%
    11:00 +29°C° 0 mm 1 mps 709 mmHg 64%
    12:00 +30°C° 0 mm 1 mps 708 mmHg 60%
    13:00 +31°C° 0 mm 1 mps 708 mmHg 56%
    14:00 +30°C° 0.7 mm 1 mps 707 mmHg 62%
    15:00 +30°C° 0.7 mm 1 mps 707 mmHg 67%
    16:00 +29°C° 0.7 mm 1 mps 706 mmHg 73%
    17:00 +27°C° 0.5 mm 1 mps 707 mmHg 80%
    18:00 +26°C° 0.5 mm 1 mps 707 mmHg 86%
    19:00 +24°C° 0.5 mm 1 mps 708 mmHg 93%
    20:00 +24°C° 0.1 mm 1 mps 708 mmHg 94%
    21:00 +23°C° 0.1 mm 1 mps 708 mmHg 94%
    22:00 +23°C° 0.1 mm 1 mps 709 mmHg 95%
    23:00 +23°C° 0 mm 1 mps 709 mmHg 95%
    Show more